Preview of NWS' New Version of Forecast
This preview is not operational and should not be used for support decisions.

Regional Weather Roundup (RWR)

Issued by National Weather Service (NWS)

                            
000
ASUS45 KABQ 230301
RWRNM 
NEW MEXICO REGIONAL WEATHER ROUNDUP
NATIONAL WEATHER SERVICE ALBUQUERQUE NM
900 PM MDT THU AUG 22 2019

NOTE: "FAIR" MEANS FEW OR NO CLOUDS BELOW 12,000 FEET AGL WITH NO
       SIGNIFICANT WEATHER OR OBSTRUCTIONS TO VISION.

      THIS PRODUCT IS RELEASED AS TWO VERSIONS.  ONE VERSION NEAR
      THE TOP OF THE HOUR CONTAINING PRELIMINARY DATA FROM ALBUQUERQUE
      AND OTHER STATIONS.  A FINAL VERSION WITH ADDITIONAL DATA IS 
      ISSUED ABOUT 10 MINUTES AFTER THE HOUR.
 
NMZ501-503-504-510>518-230400-
NORTHWEST PLATEAU/NORTHCENTRAL MOUNTAINS
  
CITY           SKY/WX    TMP DP  RH WIND       PRES   REMARKS
FARMINGTON     FAIR      79  24  13 W5        30.00R                  
LOS ALAMOS       N/A     74  29  19 SE3       30.18R                  
SANTA FE       FAIR      76  40  27 SE14      30.10R                  
TAOS           FAIR      66  44  45 SE15      30.21R                  
ANGEL FIRE     FAIR      51  47  87 W8        30.33R                  

$$
NMZ402-403-502-505>509-230400-
WESTCENTRAL MOUNTAINS/SOUTHWEST MOUNTAINS
  
CITY           SKY/WX    TMP DP  RH WIND       PRES   REMARKS
GALLUP         FAIR      74  21  13 CALM      30.10R                  
GRANTS         FAIR      69  31  24 CALM      30.13R                  
SILVER CITY    MOCLDY    78  50  37 N9        30.10R                  

$$
NMZ407-409-411-412-230400-
SOUTHERN DESERTS
  
CITY           SKY/WX    TMP DP  RH WIND       PRES   REMARKS
DEMING         FAIR      82  55  39 S3        29.98R                  
LAS CRUCES     FAIR      85  49  28 SW5       30.00R                  
HOLLOMAN AFB   FAIR      85  49  27 SE10      29.98R                  
ALAMOGORDO     FAIR      79  45  29 S7        29.98R                  
T OR C         FAIR      84  47  27 S5        30.01R                  

$$
NMZ519>523-230400-
CENTRAL VALLEYS/CENTRAL HIGHLANDS
  
CITY           SKY/WX    TMP DP  RH WIND       PRES   REMARKS
ALBUQUERQUE    MOCLDY    82  40  22 S8        30.02R                  
DOUBLE EAGLE   CLEAR     81  43  26 S8        30.06R                  
CLINES CORNERS FAIR      67  50  54 SE13G23   30.21R                  
BELEN          FAIR      83  37  19 SE12      30.01R                  
SOCORRO        FAIR      82  45  26 SW14      30.00R                  

$$
NMZ524>526-539-540-230400-
SOUTHCENTRAL MOUNTAINS
  
CITY           SKY/WX    TMP DP  RH WIND       PRES   REMARKS
RUIDOSO        FAIR      64  54  68 SE8       30.21R                  

$$
NMZ527>531-230400-
NORTHEAST HIGHLANDS/NORTHEAST PLAINS
  
CITY           SKY/WX    TMP DP  RH WIND       PRES   REMARKS
LAS VEGAS      FAIR      59  47  64 NE5       30.21F                  
RATON          FAIR      65  46  50 CALM      30.14R                  
CLAYTON        FAIR      77  51  40 VRB3      30.02R                  

$$
NMZ532>537-230400-
EASTCENTRAL PLAINS
  
CITY           SKY/WX    TMP DP  RH WIND       PRES   REMARKS
SANTA ROSA     FAIR      72  60  67 CALM      30.05R                  
TUCUMCARI      LGT RAIN  69  59  70 S16       30.00R                  
CANNON AFB     PTCLDY    76  58  53 SE9       30.03R                  
CLOVIS AIRPORT FAIR      77  57  50 SE9       30.03R                  

$$
NMZ028-029-538-230400-
SOUTHEAST PLAINS
  
CITY           SKY/WX    TMP DP  RH WIND       PRES   REMARKS
ROSWELL        FAIR      84  52  33 S3        29.94R                  
ARTESIA        FAIR      86  59  39 SE10      29.96R                  
CARLSBAD       FAIR      81  59  47 SE14      29.94R                  
HOBBS          FAIR      75  61  60 S14       29.99S                  


$$